Orbital Elements at Epoch 2459200.5 (2020-Dec-17.0) TDB
Reference: JPL 18 (heliocentric ecliptic J2000)
Element | Value | Uncertainty (1-sigma) | Units |
e | .08786504371772383 | 4.7327e-08 | |
a | 2.383982429162095 | 1.3617e-08 | au |
q | 2.174513708801482 | 1.1923e-07 | au |
i | 5.557555278585371 | 5.7184e-06 | deg |
node | 248.1959472544225 | 5.9851e-05 | deg |
peri | 224.5520737059128 | 7.2432e-05 | deg |
M | 288.7968049175384 | 4.1047e-05 | deg |
tp | 2459466.419376252183 (2021-Sep-08.91937625) | 0.00015396 | TDB |
period | 1344.475839039503 3.68 | 1.1519e-05 3.154e-08 | d yr |
n | .2677623424286932 | 2.2942e-09 | deg/d |
Q | 2.593451149522708 | 1.4814e-08 | au |
|
| | Orbit Determination Parameters
Additional Information
|